Weather History for Cortez, CO

Change the Weather History Date:

Sunday, September 29, 2013

  Actual Average Record
Temperature  
Mean Temperature 49 °F 55 °F  
Max Temperature 70 °F 73 °F 86 °F (2010)
Min Temperature 28 °F 37 °F 26 °F (1999)
Degree Days  
Heating Degree Days 16 10  
Month to date heating degree days 107 151  
Since 1 July heating degree days 107 163  
Cooling Degree Days 0 0  
Month to date cooling degree days 62 16  
Year to date cooling degree days 667 425  
Moisture  
Dew Point 27 °F    
Average Humidity 50    
Maximum Humidity 85    
Minimum Humidity 14    
Precipitation  
Precipitation 0.00 in 0.06 in 2.32 in (2005)
Month to date precipitation 3.25 1.73  
Year to date precipitation 11.37 10.17  
Sea Level Pressure  
Sea Level Pressure 30.17 in    
Wind  
Wind Speed 4 mph (ENE)    
Max Wind Speed 13 mph    
Max Gust Speed 15 mph    
Visibility 10 miles    
Events      
T = Trace of Precipitation, MM = Missing Value Source: NWS Daily Summary

Daily Weather History Graph

Daily Weather History Graph

Search for Another Location

Airport:

Trip Planner

Search our weather history database for the weather conditions in past years. The results will help you decide how hot, cold, wet, or windy it might be!

Date:

Astronomy

Sep. 29, 2013 Rise Set
Actual Time 7:08 AM MDT 7:00 PM MDT
Civil Twilight 6:42 AM MDT 7:26 PM MDT
Nautical Twilight 6:12 AM MDT 7:56 PM MDT
Astronomical Twilight 5:41 AM MDT 8:26 PM MDT
Moon 1:58 AM MDT (9/29) 3:53 PM MDT (9/29)
Length of Visible Light 12h 43m
Length of Day
11h 51m
Waning Crescent, 26% of the Moon is Illuminated
Sep 29
Waning Crescent
Oct 4
New
Oct 11
First Quarter
Oct 18
Full
Oct 26
Last Quarter

Hourly Weather History & Observations

Time (MDT) Temp. Windchill Dew Point Humidity Pressure Visibility Wind Dir Wind Speed Gust Speed Precip Events Conditions
12:53 AM 35.1 °F 30.1 °F 28.9 °F 78% 30.22 in 10.0 mi East 5.8 mph - N/A   Clear
1:53 AM 33.1 °F 28.7 °F 27.0 °F 78% 30.23 in 10.0 mi East 4.6 mph - N/A   Clear
2:53 AM 32.0 °F 28.7 °F 27.0 °F 82% 30.23 in 10.0 mi ENE 3.5 mph - N/A   Clear
3:53 AM 32.0 °F 27.5 °F 26.1 °F 79% 30.22 in 10.0 mi ENE 4.6 mph - N/A   Clear
4:53 AM 30.9 °F 27.5 °F 26.1 °F 82% 30.22 in 10.0 mi East 3.5 mph - N/A   Clear
5:53 AM 30.0 °F 26.5 °F 25.0 °F 82% 30.22 in 10.0 mi ENE 3.5 mph - N/A   Clear
6:53 AM 28.9 °F - 25.0 °F 85% 30.26 in 10.0 mi Calm Calm - N/A   Clear
7:53 AM 33.1 °F 30.0 °F 27.0 °F 78% 30.29 in 10.0 mi ENE 3.5 mph - N/A   Clear
8:53 AM 42.1 °F - 28.9 °F 60% 30.27 in 10.0 mi Calm Calm - N/A   Clear
9:53 AM 52.0 °F - 28.9 °F 41% 30.25 in 10.0 mi Calm Calm - N/A   Clear
10:53 AM 57.9 °F - 25.0 °F 28% 30.22 in 10.0 mi Calm Calm - N/A   Clear
11:53 AM 62.1 °F - 25.0 °F 24% 30.19 in 10.0 mi SW 4.6 mph - N/A   Clear
12:53 PM 64.9 °F - 21.9 °F 19% 30.16 in 10.0 mi SSW 8.1 mph - N/A   Clear
1:53 PM 68.0 °F - 24.1 °F 19% 30.11 in 10.0 mi SSW 8.1 mph - N/A   Clear
2:53 PM 68.0 °F - 23.0 °F 18% 30.09 in 10.0 mi Variable 4.6 mph - N/A   Clear
3:53 PM 68.0 °F - 21.0 °F 17% 30.09 in 10.0 mi Calm Calm - N/A   Clear
4:53 PM 69.1 °F - 19.9 °F 15% 30.08 in 10.0 mi West 10.4 mph - N/A   Clear
5:53 PM 68.0 °F - 18.0 °F 15% 30.08 in 10.0 mi WNW 5.8 mph - N/A   Clear
6:53 PM 57.9 °F - 34.0 °F 41% 30.11 in 10.0 mi Calm Calm - N/A   Clear
7:53 PM 51.1 °F - 33.1 °F 50% 30.12 in 10.0 mi NNE 3.5 mph - N/A   Clear
8:53 PM 48.0 °F - 32.0 °F 54% 30.11 in 10.0 mi NE 8.1 mph - N/A   Clear
9:53 PM 44.1 °F 41.5 °F 32.0 °F 63% 30.08 in 10.0 mi East 4.6 mph - N/A   Clear
10:53 PM 43.0 °F 41.3 °F 30.9 °F 62% 30.08 in 10.0 mi East 3.5 mph - N/A   Clear
11:53 PM 41.0 °F 39.0 °F 30.9 °F 67% 30.07 in 10.0 mi ENE 3.5 mph - N/A   Clear